Location: Bucquoy
(50.1391°N, 2.7097°E)
Time: 07:14:39
(UTC+00:00)

Cosmos 1656 Rocket - Pass Details

Date: 06 May 2021
Orbit: 794 x 848 km, 71.1° (Epoch: 21 June)

Event Time Altitude Azimuth Distance (km) Brightness Sun altitude
Exits shadow 00:42:06 43° 156° (SSE) 1,114 3.9 -22.2°
Maximum altitude 00:43:23 54° 112° (ESE) 981 3.9 -22.1°
Drops below altitude 10° 00:48:44 10° 36° (NE) 2,414 7.1 -21.9°
Sets 00:51:13 0° 32° (NNE) 3,358 8.2 -21.8°
